{"data":{"norad_id":46146,"epoch":"2026-05-25T04:21:03.760128Z","epoch_age_seconds":66178,"freshness":"FRESH","line1":"1 46146U 20057AF  26145.18129352  .00048273  00000+0  14247-2 0  9997","line2":"2 46146  53.1601 313.1768 0001716 277.3948  82.6859 15.34532026317902","mean_motion":15.34532026,"eccentricity":0.0001716,"inclination_deg":53.1601,"raan_deg":313.1768,"arg_perigee_deg":277.3948,"mean_anomaly_deg":82.6859,"bstar":0.0014247,"rev_number":31790,"period_min":93.839683734304,"perigee_km":461.13703839415,"apogee_km":463.48468009944,"semimajor_km":6840.4478592468,"source":"CELESTRAK","updated_at":"2026-05-25T13:38:16.467360Z"}}